Regional Weather Roundup
Issued by NWS

Home | Current Version | Previous Version | Graphics & Text | Print | Product List | Glossary On
Versions: 1 2 3 4 5 6 7 8 9 10 11 12 13 14 15 16 17 18 19 20 21 22 23 24 25 26 27 28 29 30 31 32 33 34 35 36 37 38 39 40 41 42 43 44 45 46 47 48 49 50
000
ASUS43 KBIS 051610
RWRND

NORTH DAKOTA REGIONAL WEATHER ROUNDUP
NATIONAL WEATHER SERVICE BISMARCK ND
1100 AM CDT TUE MAY 05 2015

NOTE: "FAIR" INDICATES FEW OR NO CLOUDS BELOW 12,000 FEET WITH NO
SIGNIFICANT WEATHER AND/OR OBSTRUCTIONS TO VISIBILITY.


NDZ001>003-009>011-017-051700-
NORTHWEST NORTH DAKOTA

CITY           SKY/WX    TMP DP  RH WIND       PRES   REMARKS
WILLISTON      SUNNY     68  33  27 S15G26    29.90F
MINOT          CLOUDY    68  32  26 S18       29.98F
MINOT AFB      PTSUNNY   66  33  29 S16       29.97F
$$

NDZ018>021-031>035-040>046-051700-
SOUTHWEST NORTH DAKOTA

CITY           SKY/WX    TMP DP  RH WIND       PRES   REMARKS
BISMARCK       SUNNY     68  38  33 S20G30    30.04F
DICKINSON      SUNNY     64  36  35 S25G35    29.92F
GARRISON         N/A     66  35  31 S18       29.99F
HETTINGER ARPT SUNNY     63  41  44 SE20G30   29.96F
$$

NDZ004>008-012>016-024-026-027-054-051700-
NORTHEAST NORTH DAKOTA

CITY           SKY/WX    TMP DP  RH WIND       PRES   REMARKS
GRAND FORKS    PTSUNNY   68  25  19 S18G24    30.14F
GRND FRKS AFB  SUNNY     67  25  19 S21G26    30.13F
DEVILS LAKE    SUNNY     66  34  30 S23       30.08F
$$

NDZ022-023-025-028>030-036>039-047>053-051700-
SOUTHEAST NORTH DAKOTA

CITY           SKY/WX    TMP DP  RH WIND       PRES   REMARKS
FARGO          SUNNY     70  23  17 SE20      30.14F
JAMESTOWN      SUNNY     68  29  23 S20G26    30.10F
$$



USA.gov is the U.S. government's official web portal to all federal, state and local government web resources and services.